Weather History for Cheyenne, WY

Change the Weather History Date:

Saturday, May 4, 2013

  Actual Average Record
Temperature  
Mean Temperature 42 °F 49 °F  
Max Temperature 51 °F 61 °F 84 °F (2000)
Min Temperature 33 °F 36 °F 23 °F (1950)
Degree Days  
Heating Degree Days 23 16  
Month to date heating degree days 138 67  
Since 1 July heating degree days 6872 6652  
Cooling Degree Days 0 0  
Month to date cooling degree days 0 0  
Year to date cooling degree days 0 0  
Moisture  
Dew Point 26 °F    
Average Humidity 57    
Maximum Humidity 75    
Minimum Humidity 39    
Precipitation  
Precipitation 0.00 in 0.07 in 0.88 in (1908)
Month to date precipitation 0.38 0.27  
Year to date precipitation 4.86 3.90  
Snow  
Snow 0.00 in 0.10 in 9.00 in (1908)
Month to date snowfall 4.3 0.6  
Since 1 July snowfall 87.1 58.6  
Snow Depth T in    
Sea Level Pressure  
Sea Level Pressure 30.14 in    
Wind  
Wind Speed 6 mph (ENE)    
Max Wind Speed 14 mph    
Max Gust Speed 21 mph    
Visibility 10 miles    
Events      
T = Trace of Precipitation, MM = Missing Value Source: NWS Daily Summary

Daily Weather History Graph

Daily Weather History Graph

Search for Another Location

Airport:

Trip Planner

Search our weather history database for the weather conditions in past years. The results will help you decide how hot, cold, wet, or windy it might be!

Date:

Astronomy

May. 04, 2013 Rise Set
Actual Time 5:52 AM MDT 7:59 PM MDT
Civil Twilight 5:22 AM MDT 8:30 PM MDT
Nautical Twilight 4:45 AM MDT 9:07 PM MDT
Astronomical Twilight 4:04 AM MDT 9:48 PM MDT
Moon 2:55 AM MDT (5/4) 2:57 PM MDT (5/4)
Length of Visible Light 15h 07m
Length of Day
14h 07m
Waning Crescent, 26% of the Moon is Illuminated
May 4
Waning Crescent
May 9
New
May 17
First Quarter
May 24
Full
May 31
Last Quarter

Hourly Weather History & Observations

Time (MDT) Temp. Windchill Dew Point Humidity Pressure Visibility Wind Dir Wind Speed Gust Speed Precip Events Conditions
12:53 AM 35.1 °F 32.2 °F 28.0 °F 76% 30.12 in 10.0 mi West 3.5 mph - N/A   Overcast
1:53 AM 35.1 °F - 26.1 °F 70% 30.11 in 10.0 mi Calm Calm - N/A   Overcast
2:53 AM 36.0 °F - 27.0 °F 70% 30.09 in 10.0 mi Calm Calm - N/A   Overcast
3:53 AM 36.0 °F 33.3 °F 25.0 °F 64% 30.07 in 10.0 mi WSW 3.5 mph - N/A   Overcast
4:53 AM 33.1 °F 26.9 °F 27.0 °F 78% 30.08 in 10.0 mi West 6.9 mph - N/A   Overcast
5:53 AM 34.0 °F - 27.0 °F 75% 30.09 in 10.0 mi Calm Calm - N/A   Overcast
6:53 AM 36.0 °F - 27.0 °F 70% 30.10 in 10.0 mi Calm Calm - N/A   Overcast
7:53 AM 35.1 °F 30.1 °F 27.0 °F 72% 30.13 in 10.0 mi East 5.8 mph - N/A   Overcast
8:53 AM 37.9 °F 34.4 °F 25.0 °F 60% 30.15 in 10.0 mi ENE 4.6 mph - N/A   Overcast
9:53 AM 39.9 °F 35.8 °F 25.0 °F 55% 30.18 in 10.0 mi ENE 5.8 mph - N/A   Overcast
10:53 AM 42.1 °F 39.2 °F 26.1 °F 53% 30.18 in 10.0 mi Variable 4.6 mph - N/A   Clear
11:53 AM 45.0 °F 41.2 °F 26.1 °F 48% 30.17 in 10.0 mi Variable 6.9 mph - N/A   Clear
12:53 PM 45.0 °F 41.8 °F 25.0 °F 46% 30.17 in 10.0 mi Variable 5.8 mph - N/A   Clear
1:53 PM 48.0 °F - 26.1 °F 42% 30.14 in 10.0 mi ENE 8.1 mph - N/A   Clear
2:53 PM 48.9 °F - 28.9 °F 46% 30.13 in 10.0 mi ENE 6.9 mph - N/A   Partly Cloudy
3:53 PM 48.9 °F - 26.1 °F 41% 30.12 in 10.0 mi ENE 10.4 mph 20.7 mph N/A   Mostly Cloudy
4:53 PM 48.9 °F - 26.1 °F 41% 30.14 in 10.0 mi East 11.5 mph - N/A   Clear
5:53 PM 48.9 °F - 25.0 °F 39% 30.13 in 10.0 mi East 10.4 mph - N/A   Scattered Clouds
6:53 PM 46.9 °F - 24.1 °F 41% 30.14 in 10.0 mi ENE 9.2 mph - N/A   Partly Cloudy
7:53 PM 45.0 °F 40.1 °F 24.1 °F 44% 30.18 in 10.0 mi ENE 9.2 mph - N/A   Clear
8:53 PM 43.0 °F 37.7 °F 24.1 °F 47% 30.17 in 10.0 mi East 9.2 mph - N/A   Clear
9:53 PM 39.0 °F 34.8 °F 25.0 °F 57% 30.21 in 10.0 mi East 5.8 mph - N/A   Scattered Clouds
10:53 PM 37.0 °F 33.3 °F 23.0 °F 57% 30.22 in 10.0 mi East 4.6 mph - N/A   Clear
11:53 PM 37.0 °F - 21.9 °F 54% 30.22 in 10.0 mi Calm Calm - N/A   Clear